Find Starlink 37321

NORAD ID: 69198 Int'l Des: 2026-114 Owner: SPXS Country: US Constellation: starlink operational
LEOCIRCULAR

現在のビュー

3D地球を読み込み中...

About Starlink 37321

Starlink 37321 (NORAD 69198) is a starlink constellation satellite (v2 mini) launched May 25, 2026 by SPXS of US. It operates in LEO, CIRCULAR orbit with a mass of 575.00 kg.

次回通過

Passes for default location (London). Set your location on the main map for personalized predictions.

高度履歴

Loading altitude history...

軌道要素

1 69198U 26114S 26223.48719986 .00021199 00000-0 63702-3 0 9997
2 69198 53.1588 300.7369 0001273 50.7281 309.3834 15.34388111 13301
Epoch: Aug 11, 2026 • Age: 21 hours

現在のステータス

高度 467.6 km
遠地点 / 近地点 N/A
速度 7.64 km/s
衛星直下点 49.86°N, 86.96°W
打ち上げ日 May 25, 2026
運用期間 0.2 years
タイプ internet

技術仕様

分類 Payload
質量 575.00 kg
乾燥質量 530.00 kg
総質量 575.00 kg
長さ 0.30 m
直径 4.10 m
スパン 29.00 m
形状 Box + pan
製造者 SPXS
バスタイプ Starlink V2MO
フェーズステータス In Orbit
所有者/国 SPXS/US

Most Searched